Location: Boitzum
(52.1496°N, 9.6943°E)
Time: 01:47:26
(UTC+00:00)

Cosmos 2074 Rocket - Pass Details

Date: 21 April 2026
Orbit: 967 x 984 km, 82.9° (Epoch: 19 May)

Event Time Altitude Azimuth Distance (km) Brightness Sun altitude
Rises 20:02:47 0° 248° (WSW) 3,673 7.4 -13.1°
Reaches altitude 10° 20:06:26 10° 269° (W) 2,734 7.1 -13.5°
Maximum altitude 20:10:09 16° 306° (NW) 2,326 7.2 -13.9°
Drops below altitude 10° 20:13:54 10° 343° (NNW) 2,749 7.3 -14.3°
Sets 20:17:36 0° 5° (N) 3,704 7.6 -14.8°
